Regional Weather Roundup
Issued by NWS

Home | Current Version | Previous Version | Graphics & Text | Print | Product List | Glossary On
Versions: 1 2 3 4 5 6 7 8 9 10 11 12 13 14 15 16 17 18 19 20 21 22 23 24 25 26 27 28 29 30 31 32 33 34 35 36 37 38 39 40 41 42 43 44 45 46 47 48 49 50
000
ASUS45 KBOU 111607
RWRCO

WEATHER ROUNDUP FOR COLORADO
NATIONAL WEATHER SERVICE DENVER/BOULDER CO
900 AM MST THU FEB 11 2016

NOTE: "FAIR" INDICATES FEW OR NO CLOUDS BELOW 12000 FEET WITH NO
SIGNIFICANT WEATHER AND/OR OBSTRUCTIONS TO VISIBILITY.

COZ001>005-013-030-031-111700-
...NORTHWEST COLORADO...

CITY           SKY/WX    TMP DP  RH WIND       PRES   REMARKS
CRAIG          CLOUDY     4   4 100 CALM      30.43R
HAYDEN         CLOUDY    21  10  63 SE12      30.40R WCI   9
MEEKER         CLOUDY    18  10  71 N3        30.42F
MOUNT WERNER   NOT AVBL
STEAMBOAT SPGS CLOUDY    11   7  84 CALM      30.42R
WALDEN         CLOUDY    30  14  51 E9        30.34S WCI  22
$$

COZ006>008-011-111700-
...WEST CENTRAL VALLEYS...

CITY           SKY/WX    TMP DP  RH WIND       PRES   REMARKS
GRAND JUNCTION CLOUDY    29  22  75 CALM      30.45R
MONTROSE       CLOUDY    28  16  60 S7        30.47R WCI  21
EAGLE          MOSUNNY   14   9  79 CALM      30.50F
RIFLE          CLOUDY    18  10  71 NE5       30.48R WCI  11
DELTA          CLOUDY    32  24  73 CALM      30.47S
NUCLA          CLOUDY    30  16  55 CALM      30.47S
$$

COZ017>023-064>068-111700-
...SOUTHWEST COLORADO...

CITY           SKY/WX    TMP DP  RH WIND       PRES   REMARKS
DURANGO        CLOUDY    19  12  74 E6        30.40R WCI  11
CORTEZ         CLOUDY    29  16  58 E3        30.42R
PAGOSA SPRINGS CLOUDY    30  10  42 CALM      30.40S
TELLURIDE      CLOUDY    31   8  37 SE6       30.48R WCI  25
WOLF CREEK PAS CLOUDY    32  -6  19 NE10G16   30.53R WCI  24
$$

COZ009-010-012-014-032>034-037-058>063-111700-
...CENTRAL COLORADO...

CITY           SKY/WX    TMP DP  RH WIND       PRES   REMARKS
ASPEN          CLOUDY    26  12  55 CALM      30.42S
BUENA VISTA    CLOUDY    30  14  50 CALM      30.35F
COPPER MTN     CLOUDY    30   1  29 W15G22    30.47R WCI  19
BERTHOUD PASS  FAIR      21  10  63 NW38G45   30.40R WCI   1
COTTONWOOD PAS CLOUDY    41  -4  15 E8        30.37S
GUNNISON       CLOUDY   -11 -11 100 CALM      30.57R
KREMMLING      CLOUDY     1  -4  78 CALM      30.48F
LEADVILLE      CLOUDY    32   2  27 NE5       30.40F WCI  27
MONARCH PASS   CLOUDY    23   3  42 W44G51    30.51R WCI   3
SALIDA         NOT AVBL
SUNLIGHT       CLOUDY    32   7  34 CALM        N/A
WILKERSON PASS CLOUDY    30  -4  22 CALM      30.40S
$$

COZ069>075-111700-
...SAN LUIS VALLEY/SANGRE DE CRISTO MOUNTAINS...

CITY           SKY/WX    TMP DP  RH WIND       PRES   REMARKS
ALAMOSA        CLOUDY    29  17  61 CALM      30.41R
LA VETA PASS   CLOUDY    34   7  32 S16G23    30.38S WCI  23
SAGUACHE       CLOUDY    32  10  40 NW13      30.41R WCI  22
$$

COZ035-036-038>040-111700-
...NORTHERN COLORADO FRONT RANGE...

CITY           SKY/WX    TMP DP  RH WIND       PRES   REMARKS
DENVER INTL AP CLOUDY    47  17  30 SW10      30.15S
DMNS CITY PARK   N/A     44  14  30 SE9       30.15S
AURORA         NOT AVBL
FRONT RANGE AP PTSUNNY   45  18  33 MISG      30.16
ERIE MUNI ARPT CLOUDY    33  26  73 CALM      30.14S
BOULDER MUN AP CLOUDY    43  18  36 NW3       30.14R
CENTENNIAL     CLOUDY    40  22  48 S3        30.17S
BROOMFIELD     PTSUNNY   54  12  19 W9        30.16R
FORT COLLINS   CLOUDY    30  21  69 CALM      30.15R
LONGMONT       CLOUDY    39  22  50 SW8       30.15F
$$

COZ041-046-047-076>085-087-088-111700-
...PIKES PEAK/PALMER DIVIDE AND SOUTHERN FOOTHILLS...

CITY           SKY/WX    TMP DP  RH WIND       PRES   REMARKS
COLO. SPRINGS  CLOUDY    43  16  33 E3        30.21S
A. F. ACADEMY  CLOUDY    39  19  43 E7        30.19F
SCHRIEVER AFB  FAIR      42  16  34 N6        30.21F
ELLICOTT       LGT RAIN N/A N/A N/A CALM      30.19F
FALCON         NOT AVBL
FORT CARSON    NOT AVBL
LIMON          CLOUDY    36  21  54 N7        30.19R
MONUMENT HILL  CLOUDY    39  10  30 SW9       30.23S
TRINIDAD       SUNNY     49  12  22 SW9       30.24R
$$

COZ042>045-048>051-090-091-111700-
...NORTHEAST COLORADO...

CITY           SKY/WX    TMP DP  RH WIND       PRES   REMARKS
GREELEY ARPT   CLOUDY    30  25  80 SW5       30.14F WCI  25
AKRON          CLOUDY    42  22  44 SW18      30.11F
BURLINGTON     CLOUDY    40  26  57 SW12      30.14F
WRAY           NOT AVBL
STERLING       CLOUDY    34  27  75 S7        30.12R WCI  28
HOLYOKE        MOSUNNY   41  32  70 W9        30.10R
FORT MORGAN    CLOUDY    33  22  62 W8        30.13S WCI  27
$$

COZ086-089-092>099-111700-
...SOUTHEAST COLORADO...

CITY           SKY/WX    TMP DP  RH WIND       PRES   REMARKS
PUEBLO         SUNNY     41  25  53 CALM      30.19F
LA JUNTA       CLOUDY    43  23  45 W7        30.19S
LAMAR          CLOUDY    40  27  59 W8        30.19S
SPRINGFIELD      N/A     52  22  30 W8        30.19F
$$



USA.gov is the U.S. government's official web portal to all federal, state and local government web resources and services.